Weather in Zakharovo

Russia / Kaluga Oblast     54°43′50″N   36°38′20″E
temp.,
°C
wind,
m/s
gust,
m/s
humid.,
%
clouds,
%
prec.,
mm/h
press.,
hPa
HPBL,
m
20 april, tue
tue2000:00+3ene51297100 0.5 1022740
03:00+2ene51297100 0.9 1021624
06:00+3ene51196100 0.3 1020591
09:00+4e5128798 0.6 1019590
12:00+4e51190100 0.0 1018721
15:00+2ene51096100 0.1 1017591
18:00+2ene51197100 0.0 1015560
21:00+2ene4997100 0.1 1013689
21 april, wed
wed2100:00+2ne4997100 0.3 1009490
03:00+1nne3999100 3.1 1006318
06:00+1nnw2599100 1.9 1004214
09:00+2w2599100 3.1 1004308
12:00+3wsw3794100 0.1 1006738
15:00+4wsw4892100 0.3 1008665
18:00+5sw3791100 0.0 1010540
21:00+4ssw3895100 0.1 1011253
22 april, thu
thu2200:00+4ssw3895100 0.1 1012288
03:00+3ssw389796 0.1 1013284
06:00+3ssw3898100 0.1 1014328
09:00+6sw468356 0.1 1016596
12:00+10ssw466773 0.2 10161185
15:00+12s4766100 0.7 10151330
18:00+11s49775 0.3 1015704
21:00+7s411925 0.3 1016283
23 april, fri
fri2300:00+6s3119574 0.0 1016248
03:00+6s3119528 0.0 1016229
06:00+6s41392100 0.0 1015329
09:00+11s5127866 0.2 1015571
12:00+15s712605 0.6 10141823
15:00+16s711556 2.1 10142165
18:00+13s51165100 1.9 1013685
21:00+9se3889100 3.4 1013237
24 april, sat
sat2400:00+9s41189100 1.1 1012610
03:00+8sse5139184 1.2 1009921
06:00+4w5795100 0.3 1009508
09:00+3w3798100 0.8 1010423
12:00+4w3696100 0.9 1010626
15:00+5w3691100 1.4 1009589
18:00+5w2583100 0.5 1009693
21:00+3w4108799 0.9 1010629